Precipitable_Water
0.36 0.25 0.21 0.17 0.16 0.18 0.19 0.19 0.19 0.19 0.18 0.16 0.14 0.12 0.11 0.10 0.11 0.12 0.12 0.14 0.16 0.14 0.13 0.13 0.13 0.12 0.12 0.15 0.22 0.31 0.43 0.47 0.48 0.47 0.44 0.44 0.47 0.47 0.47 0.46 0.46 0.47 0.45 0.66 0.75 0.83 0.90 0.99 1.06 1.12 1.19 1.20 1.22 1.22 1.23 1.25 1.27 1.24 1.14 1.10 1.07 1.09 1.08 1.05 1.05 1.11 1.15 1.20 1.29 1.30 1.30 1.28 1.29 1.30 1.34 1.33 1.32 1.31 1.32 1.32 1.34 1.36 1.42 1.47 1.44 1.42
0.35 0.24 0.21 0.21 0.20 0.19 0.19 0.20 0.20 0.19 0.18 0.16 0.14 0.12 0.11 0.11 0.10 0.12 0.12 0.14 0.16 0.14 0.13 0.15 0.13 0.12 0.13 0.15 0.20 0.31 0.38 0.38 0.42 0.43 0.42 0.43 0.44 0.44 0.42 0.42 0.44 0.47 0.60 0.67 0.69 0.77 0.86 0.96 1.04 1.11 1.17 1.19 1.14 1.19 1.23 1.24 1.27 1.23 1.22 1.21 1.22 1.23 1.15 1.08 1.11 1.14 1.19 1.29 1.33 1.35 1.35 1.33 1.28 1.31 1.32 1.29 1.31 1.31 1.32 1.33 1.33 1.38 1.45 1.48 1.44 1.41
0.27 0.22 0.24 0.24 0.23 0.22 0.20 0.20 0.20 0.19 0.18 0.17 0.14 0.13 0.11 0.11 0.13 0.14 0.14 0.15 0.15 0.14 0.13 0.15 0.13 0.12 0.13 0.16 0.23 0.27 0.31 0.35 0.41 0.42 0.39 0.39 0.40 0.40 0.41 0.42 0.45 0.50 0.51 0.58 0.65 0.74 0.82 0.92 1.00 1.07 1.15 1.20 1.25 1.26 1.25 1.29 1.30 1.29 1.29 1.34 1.36 1.34 1.30 1.34 1.38 1.35 1.35 1.35 1.40 1.43 1.41 1.35 1.31 1.43 1.44 1.40 1.38 1.36 1.32 1.30 1.35 1.41 1.48 1.47 1.42 1.40
0.23 0.26 0.28 0.28 0.25 0.21 0.19 0.19 0.19 0.19 0.19 0.17 0.15 0.13 0.11 0.12 0.11 0.10 0.13 0.15 0.15 0.14 0.13 0.15 0.13 0.13 0.16 0.20 0.23 0.31 0.33 0.36 0.44 0.47 0.48 0.49 0.42 0.38 0.38 0.41 0.44 0.46 0.48 0.51 0.58 0.67 0.78 0.87 0.97 1.05 1.11 1.20 1.28 1.27 1.25 1.27 1.29 1.35 1.36 1.40 1.43 1.41 1.44 1.46 1.45 1.38 1.33 1.40 1.48 1.54 1.51 1.47 1.46 1.41 1.43 1.40 1.39 1.34 1.29 1.26 1.35 1.45 1.48 1.45 1.39 1.36
0.26 0.29 0.32 0.29 0.25 0.21 0.18 0.19 0.18 0.18 0.16 0.18 0.17 0.14 0.13 0.12 0.12 0.12 0.13 0.14 0.16 0.15 0.15 0.15 0.14 0.13 0.14 0.16 0.18 0.26 0.38 0.42 0.46 0.49 0.50 0.52 0.52 0.52 0.54 0.55 0.52 0.45 0.46 0.50 0.60 0.68 0.74 0.81 0.89 1.00 1.12 1.25 1.25 1.26 1.25 1.28 1.33 1.42 1.48 1.50 1.50 1.47 1.46 1.42 1.45 1.35 1.35 1.42 1.46 1.51 1.52 1.56 1.51 1.51 1.41 1.33 1.25 1.26 1.25 1.27 1.36 1.44 1.47 1.43 1.36 1.31
0.29 0.32 0.33 0.28 0.25 0.22 0.19 0.17 0.17 0.18 0.16 0.17 0.18 0.16 0.15 0.14 0.13 0.13 0.15 0.13 0.12 0.12 0.14 0.13 0.10 0.10 0.14 0.16 0.17 0.25 0.31 0.32 0.40 0.41 0.40 0.43 0.47 0.50 0.47 0.46 0.50 0.52 0.55 0.56 0.63 0.70 0.75 0.81 0.91 1.01 1.13 1.20 1.26 1.26 1.30 1.34 1.38 1.39 1.40 1.52 1.58 1.56 1.53 1.46 1.47 1.45 1.42 1.42 1.44 1.45 1.40 1.38 1.39 1.29 1.25 1.16 1.12 1.14 1.17 1.27 1.43 1.48 1.47 1.41 1.33 1.30
0.31 0.34 0.31 0.27 0.25 0.22 0.19 0.17 0.18 0.18 0.17 0.16 0.16 0.19 0.17 0.16 0.15 0.14 0.14 0.13 0.11 0.10 0.13 0.15 0.10 0.09 0.13 0.13 0.16 0.23 0.25 0.25 0.35 0.36 0.35 0.41 0.44 0.45 0.43 0.44 0.47 0.48 0.50 0.59 0.69 0.76 0.76 0.81 0.89 1.01 1.12 1.19 1.23 1.30 1.36 1.37 1.39 1.46 1.50 1.49 1.58 1.68 1.56 1.52 1.50 1.52 1.49 1.48 1.52 1.47 1.38 1.34 1.29 1.19 1.19 1.23 1.23 1.21 1.29 1.41 1.48 1.49 1.46 1.40 1.32 1.30
0.35 0.32 0.31 0.29 0.25 0.22 0.19 0.16 0.18 0.18 0.17 0.16 0.20 0.19 0.18 0.16 0.15 0.14 0.14 0.13 0.13 0.15 0.16 0.15 0.13 0.10 0.10 0.13 0.18 0.24 0.23 0.24 0.28 0.30 0.31 0.35 0.37 0.39 0.40 0.43 0.46 0.48 0.52 0.59 0.67 0.76 0.79 0.82 0.91 1.02 1.15 1.21 1.25 1.33 1.36 1.37 1.39 1.43 1.45 1.45 1.44 1.51 1.57 1.56 1.56 1.56 1.56 1.52 1.52 1.50 1.41 1.36 1.31 1.25 1.20 1.21 1.20 1.28 1.39 1.48 1.50 1.48 1.42 1.36 1.32 1.32
0.34 0.30 0.30 0.27 0.26 0.22 0.19 0.19 0.19 0.19 0.17 0.18 0.21 0.20 0.18 0.18 0.16 0.15 0.14 0.14 0.14 0.13 0.11 0.13 0.16 0.10 0.10 0.13 0.25 0.26 0.19 0.21 0.21 0.23 0.25 0.29 0.34 0.37 0.41 0.45 0.48 0.52 0.57 0.64 0.68 0.73 0.76 0.79 0.93 1.08 1.15 1.24 1.28 1.31 1.32 1.34 1.38 1.44 1.48 1.48 1.54 1.55 1.52 1.56 1.56 1.53 1.48 1.55 1.55 1.50 1.43 1.37 1.38 1.34 1.27 1.25 1.25 1.30 1.49 1.51 1.51 1.45 1.36 1.32 1.32 1.35
0.36 0.34 0.32 0.31 0.26 0.22 0.23 0.22 0.21 0.20 0.17 0.20 0.22 0.22 0.21 0.19 0.18 0.17 0.15 0.14 0.14 0.11 0.09 0.11 0.14 0.09 0.09 0.12 0.18 0.28 0.22 0.17 0.17 0.20 0.24 0.28 0.31 0.34 0.38 0.42 0.47 0.53 0.60 0.68 0.73 0.78 0.81 0.85 0.97 1.12 1.22 1.24 1.25 1.29 1.34 1.37 1.41 1.43 1.47 1.47 1.52 1.48 1.52 1.60 1.57 1.54 1.49 1.46 1.56 1.52 1.46 1.36 1.32 1.30 1.26 1.24 1.22 1.36 1.52 1.48 1.46 1.38 1.31 1.29 1.30 1.33
0.36 0.39 0.37 0.32 0.28 0.27 0.25 0.24 0.22 0.21 0.20 0.22 0.21 0.20 0.19 0.19 0.18 0.18 0.16 0.15 0.13 0.09 0.10 0.13 0.15 0.12 0.08 0.12 0.14 0.16 0.15 0.16 0.19 0.21 0.24 0.27 0.31 0.36 0.39 0.42 0.46 0.51 0.60 0.67 0.73 0.79 0.85 0.90 1.00 1.13 1.15 1.19 1.23 1.27 1.30 1.32 1.36 1.41 1.44 1.51 1.50 1.47 1.54 1.60 1.63 1.54 1.51 1.51 1.55 1.49 1.44 1.37 1.28 1.23 1.23 1.23 1.32 1.43 1.44 1.41 1.38 1.32 1.29 1.30 1.30 1.29
0.34 0.36 0.33 0.33 0.35 0.32 0.28 0.23 0.24 0.23 0.22 0.20 0.19 0.18 0.18 0.17 0.18 0.16 0.15 0.15 0.10 0.08 0.11 0.13 0.14 0.14 0.08 0.10 0.14 0.18 0.19 0.18 0.16 0.15 0.17 0.20 0.25 0.29 0.35 0.42 0.48 0.54 0.61 0.67 0.70 0.73 0.83 0.88 0.97 1.08 1.10 1.15 1.18 1.21 1.23 1.28 1.35 1.40 1.44 1.46 1.42 1.45 1.51 1.56 1.57 1.57 1.53 1.54 1.53 1.49 1.44 1.37 1.27 1.25 1.29 1.33 1.36 1.39 1.34 1.35 1.31 1.31 1.30 1.30 1.28 1.22
0.30 0.31 0.34 0.33 0.36 0.32 0.27 0.23 0.22 0.22 0.21 0.19 0.18 0.17 0.14 0.13 0.13 0.11 0.12 0.09 0.09 0.09 0.12 0.13 0.14 0.12 0.11 0.12 0.14 0.17 0.18 0.20 0.22 0.19 0.18 0.20 0.22 0.29 0.37 0.43 0.49 0.56 0.60 0.64 0.65 0.70 0.77 0.82 0.90 0.98 1.06 1.12 1.13 1.13 1.19 1.25 1.33 1.40 1.50 1.45 1.40 1.44 1.47 1.48 1.58 1.55 1.53 1.52 1.52 1.48 1.42 1.33 1.30 1.33 1.37 1.38 1.39 1.38 1.37 1.34 1.30 1.28 1.27 1.27 1.20 1.15
0.28 0.32 0.32 0.32 0.34 0.34 0.29 0.20 0.19 0.18 0.19 0.18 0.16 0.15 0.13 0.11 0.10 0.08 0.09 0.12 0.12 0.12 0.15 0.13 0.15 0.11 0.14 0.13 0.14 0.14 0.15 0.18 0.20 0.22 0.23 0.23 0.27 0.33 0.38 0.44 0.50 0.56 0.59 0.62 0.65 0.68 0.74 0.81 0.90 0.98 1.04 1.08 1.12 1.14 1.17 1.24 1.33 1.38 1.43 1.47 1.43 1.42 1.40 1.43 1.51 1.53 1.52 1.54 1.54 1.51 1.44 1.36 1.33 1.37 1.40 1.41 1.38 1.38 1.39 1.35 1.31 1.30 1.29 1.22 1.15 1.11
0.21 0.22 0.27 0.29 0.26 0.34 0.30 0.24 0.21 0.18 0.18 0.18 0.18 0.16 0.14 0.13 0.10 0.08 0.09 0.08 0.09 0.11 0.13 0.16 0.12 0.10 0.09 0.10 0.14 0.14 0.16 0.20 0.20 0.21 0.26 0.30 0.34 0.38 0.43 0.48 0.52 0.56 0.58 0.62 0.66 0.67 0.73 0.82 0.90 0.97 1.04 1.10 1.15 1.16 1.17 1.24 1.34 1.38 1.36 1.37 1.36 1.36 1.39 1.41 1.52 1.59 1.59 1.53 1.59 1.55 1.47 1.40 1.38 1.41 1.43 1.41 1.38 1.41 1.38 1.37 1.32 1.32 1.29 1.20 1.15 1.11
0.24 0.23 0.28 0.32 0.31 0.33 0.29 0.29 0.25 0.21 0.19 0.19 0.19 0.18 0.14 0.13 0.15 0.11 0.12 0.12 0.11 0.11 0.11 0.12 0.11 0.14 0.12 0.15 0.16 0.20 0.24 0.26 0.30 0.29 0.30 0.31 0.36 0.40 0.42 0.45 0.48 0.53 0.56 0.61 0.64 0.68 0.75 0.85 0.95 1.02 1.07 1.12 1.16 1.16 1.18 1.24 1.34 1.36 1.36 1.39 1.43 1.43 1.38 1.42 1.49 1.54 1.54 1.52 1.53 1.52 1.43 1.39 1.40 1.45 1.49 1.44 1.44 1.45 1.44 1.38 1.34 1.30 1.26 1.20 1.16 1.14
0.25 0.23 0.29 0.31 0.32 0.32 0.31 0.31 0.27 0.24 0.14 0.17 0.17 0.14 0.14 0.18 0.16 0.14 0.14 0.16 0.14 0.11 0.09 0.14 0.12 0.13 0.17 0.15 0.16 0.20 0.23 0.23 0.28 0.29 0.30 0.32 0.37 0.40 0.39 0.44 0.49 0.54 0.57 0.60 0.63 0.66 0.75 0.89 0.98 1.04 1.09 1.14 1.17 1.16 1.17 1.24 1.34 1.37 1.36 1.40 1.38 1.40 1.38 1.40 1.49 1.47 1.52 1.58 1.50 1.46 1.43 1.41 1.43 1.47 1.44 1.43 1.45 1.45 1.44 1.39 1.34 1.28 1.24 1.20 1.17 1.14
0.22 0.23 0.29 0.29 0.27 0.32 0.35 0.33 0.29 0.26 0.24 0.19 0.14 0.16 0.19 0.21 0.20 0.15 0.11 0.13 0.11 0.09 0.10 0.13 0.11 0.11 0.11 0.09 0.19 0.20 0.18 0.20 0.24 0.28 0.32 0.34 0.38 0.36 0.40 0.45 0.50 0.54 0.57 0.62 0.66 0.73 0.82 0.92 0.99 1.05 1.11 1.14 1.16 1.18 1.21 1.27 1.37 1.45 1.43 1.42 1.43 1.40 1.36 1.46 1.50 1.51 1.51 1.47 1.43 1.38 1.39 1.45 1.51 1.48 1.45 1.42 1.46 1.46 1.41 1.36 1.31 1.26 1.20 1.17 1.18 1.16
0.29 0.22 0.26 0.29 0.28 0.31 0.34 0.33 0.28 0.28 0.26 0.19 0.16 0.21 0.15 0.12 0.12 0.16 0.15 0.10 0.09 0.08 0.09 0.12 0.12 0.11 0.11 0.10 0.15 0.15 0.15 0.16 0.21 0.28 0.31 0.32 0.34 0.36 0.42 0.47 0.53 0.57 0.59 0.61 0.66 0.75 0.84 0.92 0.99 1.04 1.10 1.17 1.23 1.27 1.30 1.35 1.43 1.49 1.49 1.52 1.49 1.41 1.46 1.51 1.50 1.46 1.46 1.42 1.38 1.40 1.42 1.47 1.52 1.52 1.47 1.48 1.49 1.45 1.38 1.31 1.26 1.22 1.20 1.19 1.18 1.15
0.29 0.23 0.24 0.30 0.28 0.29 0.31 0.29 0.21 0.23 0.25 0.25 0.22 0.18 0.20 0.17 0.15 0.14 0.14 0.16 0.12 0.09 0.09 0.10 0.11 0.09 0.12 0.11 0.14 0.15 0.17 0.18 0.22 0.26 0.27 0.30 0.34 0.38 0.42 0.46 0.50 0.53 0.56 0.62 0.70 0.77 0.86 0.95 1.01 1.07 1.12 1.16 1.21 1.29 1.40 1.44 1.47 1.48 1.49 1.45 1.47 1.44 1.49 1.51 1.46 1.42 1.35 1.36 1.36 1.39 1.44 1.49 1.51 1.49 1.46 1.47 1.45 1.41 1.36 1.30 1.25 1.21 1.19 1.18 1.19 1.14
0.27 0.30 0.21 0.26 0.30 0.29 0.24 0.26 0.22 0.23 0.20 0.20 0.19 0.17 0.16 0.17 0.18 0.18 0.18 0.16 0.13 0.11 0.09 0.09 0.09 0.10 0.12 0.14 0.14 0.16 0.17 0.20 0.23 0.23 0.27 0.32 0.37 0.42 0.46 0.49 0.52 0.55 0.60 0.66 0.72 0.79 0.89 0.97 1.04 1.10 1.15 1.20 1.28 1.37 1.43 1.45 1.42 1.45 1.47 1.45 1.46 1.42 1.42 1.42 1.40 1.34 1.30 1.32 1.34 1.39 1.42 1.46 1.47 1.46 1.47 1.47 1.45 1.40 1.34 1.29 1.24 1.21 1.20 1.20 1.15 1.13
0.28 0.27 0.23 0.25 0.24 0.23 0.23 0.27 0.27 0.25 0.24 0.21 0.19 0.17 0.16 0.15 0.13 0.11 0.12 0.17 0.16 0.14 0.12 0.10 0.09 0.12 0.13 0.16 0.16 0.17 0.21 0.22 0.27 0.30 0.32 0.35 0.40 0.44 0.48 0.53 0.57 0.59 0.64 0.70 0.77 0.84 0.92 1.00 1.07 1.12 1.17 1.22 1.27 1.31 1.34 1.37 1.36 1.36 1.39 1.43 1.45 1.43 1.39 1.37 1.34 1.30 1.29 1.31 1.37 1.40 1.43 1.45 1.48 1.49 1.48 1.44 1.41 1.37 1.32 1.27 1.23 1.21 1.19 1.16 1.14 1.12
0.32 0.29 0.27 0.22 0.23 0.24 0.26 0.28 0.29 0.28 0.27 0.23 0.21 0.18 0.18 0.17 0.16 0.12 0.11 0.13 0.15 0.16 0.18 0.16 0.12 0.11 0.17 0.18 0.19 0.20 0.24 0.26 0.29 0.33 0.34 0.37 0.41 0.45 0.50 0.55 0.59 0.64 0.68 0.75 0.82 0.89 0.96 1.03 1.08 1.12 1.16 1.20 1.25 1.28 1.30 1.31 1.30 1.32 1.37 1.41 1.42 1.40 1.38 1.38 1.32 1.32 1.33 1.37 1.41 1.42 1.43 1.43 1.46 1.47 1.46 1.41 1.37 1.33 1.30 1.27 1.23 1.22 1.17 1.14 1.10 1.10
0.35 0.28 0.25 0.25 0.26 0.27 0.27 0.29 0.29 0.28 0.27 0.23 0.22 0.21 0.18 0.15 0.15 0.14 0.13 0.15 0.13 0.15 0.14 0.14 0.11 0.13 0.17 0.25 0.26 0.27 0.29 0.31 0.36 0.37 0.37 0.39 0.43 0.47 0.50 0.54 0.58 0.62 0.71 0.80 0.88 0.93 0.97 1.03 1.09 1.12 1.14 1.19 1.24 1.25 1.24 1.26 1.30 1.34 1.37 1.38 1.38 1.35 1.35 1.36 1.33 1.32 1.35 1.40 1.41 1.42 1.40 1.41 1.47 1.46 1.44 1.38 1.35 1.31 1.30 1.27 1.23 1.21 1.16 1.12 1.09 1.05
0.27 0.28 0.27 0.23 0.22 0.22 0.24 0.26 0.26 0.26 0.25 0.21 0.19 0.20 0.19 0.18 0.17 0.17 0.16 0.16 0.12 0.14 0.15 0.14 0.10 0.13 0.17 0.25 0.31 0.30 0.32 0.33 0.34 0.39 0.43 0.41 0.46 0.49 0.52 0.56 0.60 0.66 0.72 0.78 0.83 0.88 0.93 0.98 1.01 1.05 1.11 1.17 1.21 1.24 1.25 1.24 1.27 1.30 1.33 1.35 1.33 1.33 1.36 1.36 1.36 1.33 1.35 1.39 1.39 1.37 1.35 1.38 1.43 1.43 1.40 1.37 1.35 1.32 1.30 1.25 1.22 1.19 1.15 1.10 1.05 1.04
0.30 0.28 0.26 0.21 0.19 0.17 0.16 0.17 0.17 0.19 0.19 0.21 0.21 0.19 0.19 0.18 0.17 0.15 0.12 0.13 0.11 0.15 0.15 0.14 0.13 0.17 0.20 0.22 0.28 0.33 0.34 0.35 0.39 0.42 0.46 0.50 0.50 0.51 0.54 0.57 0.61 0.66 0.70 0.75 0.80 0.84 0.85 0.92 0.98 1.02 1.08 1.15 1.20 1.22 1.22 1.22 1.24 1.27 1.29 1.31 1.34 1.32 1.33 1.35 1.37 1.34 1.33 1.36 1.35 1.32 1.33 1.37 1.41 1.40 1.38 1.36 1.34 1.32 1.30 1.25 1.21 1.18 1.14 1.09 1.04 1.02
0.32 0.33 0.29 0.26 0.22 0.19 0.20 0.21 0.23 0.23 0.22 0.19 0.19 0.18 0.18 0.18 0.19 0.18 0.16 0.14 0.11 0.15 0.15 0.15 0.16 0.17 0.17 0.20 0.23 0.29 0.35 0.33 0.35 0.41 0.44 0.47 0.52 0.56 0.57 0.59 0.63 0.66 0.69 0.71 0.75 0.80 0.86 0.89 0.94 1.00 1.07 1.14 1.18 1.21 1.20 1.19 1.19 1.22 1.25 1.27 1.31 1.33 1.34 1.35 1.35 1.33 1.32 1.34 1.33 1.31 1.34 1.37 1.38 1.37 1.37 1.35 1.34 1.33 1.30 1.26 1.23 1.18 1.12 1.09 1.04 1.02
0.34 0.28 0.30 0.30 0.26 0.25 0.25 0.24 0.24 0.24 0.21 0.21 0.19 0.19 0.19 0.18 0.18 0.17 0.15 0.13 0.16 0.15 0.13 0.17 0.18 0.17 0.17 0.20 0.23 0.27 0.33 0.36 0.38 0.43 0.48 0.52 0.54 0.56 0.58 0.62 0.66 0.67 0.69 0.72 0.76 0.78 0.81 0.86 0.91 0.98 1.05 1.11 1.16 1.20 1.20 1.22 1.21 1.21 1.23 1.23 1.27 1.30 1.31 1.33 1.34 1.32 1.31 1.33 1.36 1.37 1.36 1.38 1.37 1.36 1.36 1.35 1.34 1.32 1.29 1.27 1.25 1.19 1.14 1.09 1.05 1.02
0.33 0.28 0.30 0.31 0.28 0.28 0.27 0.26 0.26 0.24 0.23 0.22 0.20 0.19 0.18 0.19 0.18 0.17 0.16 0.17 0.17 0.14 0.14 0.18 0.19 0.18 0.19 0.21 0.25 0.28 0.32 0.34 0.37 0.44 0.54 0.58 0.60 0.61 0.61 0.60 0.59 0.61 0.65 0.68 0.72 0.79 0.82 0.83 0.88 0.95 1.02 1.08 1.12 1.15 1.17 1.19 1.21 1.22 1.23 1.24 1.26 1.29 1.28 1.32 1.32 1.30 1.29 1.30 1.33 1.36 1.37 1.37 1.36 1.35 1.34 1.33 1.31 1.29 1.27 1.25 1.24 1.20 1.14 1.09 1.06 1.05
0.33 0.29 0.31 0.31 0.28 0.28 0.27 0.27 0.26 0.23 0.22 0.22 0.21 0.20 0.19 0.19 0.18 0.18 0.17 0.18 0.18 0.16 0.18 0.20 0.20 0.19 0.21 0.22 0.27 0.32 0.37 0.39 0.44 0.54 0.58 0.57 0.57 0.59 0.60 0.58 0.58 0.60 0.64 0.67 0.72 0.78 0.82 0.86 0.90 0.95 1.01 1.07 1.10 1.12 1.14 1.15 1.15 1.15 1.16 1.18 1.22 1.24 1.28 1.31 1.28 1.26 1.25 1.26 1.28 1.32 1.34 1.34 1.33 1.30 1.30 1.29 1.28 1.27 1.25 1.24 1.22 1.19 1.13 1.08 1.07 1.06
0.34 0.29 0.33 0.32 0.28 0.27 0.28 0.27 0.26 0.24 0.22 0.20 0.20 0.20 0.20 0.19 0.19 0.18 0.18 0.18 0.19 0.17 0.20 0.21 0.20 0.18 0.22 0.25 0.27 0.37 0.41 0.45 0.47 0.46 0.50 0.53 0.56 0.57 0.57 0.57 0.58 0.61 0.65 0.70 0.73 0.78 0.83 0.88 0.92 0.96 0.98 1.04 1.09 1.12 1.14 1.15 1.15 1.15 1.14 1.16 1.20 1.24 1.29 1.31 1.27 1.25 1.23 1.23 1.27 1.29 1.31 1.30 1.28 1.27 1.26 1.27 1.26 1.24 1.22 1.21 1.20 1.16 1.10 1.07 1.07 1.06
0.36 0.31 0.35 0.31 0.26 0.24 0.26 0.25 0.24 0.24 0.23 0.21 0.20 0.19 0.19 0.19 0.18 0.18 0.17 0.19 0.17 0.16 0.18 0.20 0.19 0.18 0.22 0.29 0.35 0.39 0.42 0.41 0.40 0.43 0.45 0.50 0.55 0.57 0.55 0.55 0.58 0.60 0.63 0.69 0.74 0.78 0.81 0.87 0.90 0.92 0.94 0.99 1.07 1.10 1.11 1.11 1.13 1.15 1.14 1.17 1.19 1.25 1.30 1.28 1.26 1.24 1.21 1.22 1.25 1.27 1.27 1.26 1.25 1.23 1.24 1.25 1.23 1.21 1.20 1.20 1.17 1.11 1.08 1.07 1.06 1.05
0.37 0.33 0.31 0.30 0.25 0.23 0.25 0.25 0.24 0.23 0.22 0.19 0.18 0.19 0.19 0.19 0.19 0.20 0.20 0.21 0.19 0.19 0.17 0.17 0.18 0.22 0.26 0.34 0.31 0.35 0.39 0.42 0.44 0.45 0.46 0.49 0.56 0.58 0.55 0.57 0.60 0.63 0.66 0.70 0.73 0.76 0.80 0.84 0.90 0.93 0.97 1.00 1.04 1.09 1.13 1.14 1.13 1.13 1.18 1.19 1.22 1.27 1.28 1.28 1.26 1.23 1.19 1.20 1.21 1.23 1.25 1.24 1.22 1.21 1.22 1.23 1.22 1.20 1.18 1.16 1.13 1.09 1.08 1.07 1.08 1.06
0.39 0.36 0.33 0.34 0.26 0.24 0.24 0.24 0.24 0.21 0.16 0.15 0.22 0.23 0.21 0.18 0.19 0.18 0.18 0.19 0.20 0.21 0.19 0.20 0.22 0.25 0.29 0.31 0.29 0.33 0.38 0.41 0.44 0.51 0.55 0.52 0.55 0.58 0.60 0.63 0.64 0.67 0.71 0.74 0.76 0.78 0.83 0.87 0.91 0.97 1.00 1.02 1.06 1.09 1.15 1.18 1.18 1.20 1.23 1.26 1.28 1.27 1.30 1.31 1.29 1.21 1.18 1.19 1.21 1.23 1.24 1.24 1.22 1.21 1.22 1.24 1.22 1.19 1.16 1.15 1.11 1.10 1.10 1.09 1.08 1.05
0.37 0.36 0.34 0.34 0.28 0.24 0.24 0.23 0.20 0.16 0.16 0.25 0.30 0.27 0.24 0.23 0.21 0.20 0.20 0.21 0.21 0.22 0.21 0.21 0.23 0.24 0.28 0.34 0.36 0.44 0.50 0.53 0.55 0.53 0.54 0.58 0.65 0.65 0.64 0.65 0.67 0.69 0.72 0.73 0.76 0.81 0.83 0.86 0.89 0.94 0.99 1.02 1.05 1.08 1.11 1.12 1.17 1.23 1.26 1.29 1.29 1.30 1.28 1.31 1.31 1.26 1.22 1.22 1.23 1.24 1.24 1.23 1.22 1.22 1.22 1.21 1.20 1.17 1.15 1.13 1.12 1.09 1.08 1.07 1.06 1.04
0.36 0.34 0.35 0.31 0.30 0.27 0.22 0.20 0.16 0.16 0.29 0.34 0.32 0.28 0.30 0.28 0.24 0.23 0.21 0.23 0.23 0.22 0.22 0.22 0.25 0.28 0.33 0.37 0.45 0.55 0.56 0.57 0.60 0.60 0.60 0.63 0.71 0.70 0.68 0.68 0.71 0.73 0.71 0.75 0.77 0.81 0.84 0.86 0.88 0.91 0.97 1.05 1.07 1.08 1.10 1.11 1.16 1.16 1.20 1.25 1.21 1.20 1.20 1.24 1.25 1.22 1.24 1.25 1.24 1.23 1.23 1.23 1.22 1.22 1.21 1.19 1.17 1.15 1.13 1.12 1.10 1.08 1.08 1.07 1.06 1.05
0.41 0.39 0.37 0.30 0.32 0.21 0.20 0.20 0.20 0.30 0.29 0.32 0.28 0.28 0.27 0.23 0.22 0.20 0.17 0.19 0.23 0.24 0.24 0.25 0.29 0.33 0.37 0.42 0.52 0.58 0.61 0.61 0.54 0.55 0.65 0.68 0.73 0.77 0.77 0.75 0.76 0.77 0.80 0.82 0.84 0.85 0.90 0.93 0.94 0.97 1.01 1.03 1.06 1.07 1.09 1.13 1.17 1.18 1.19 1.21 1.25 1.21 1.19 1.23 1.25 1.25 1.22 1.25 1.26 1.25 1.24 1.24 1.23 1.21 1.19 1.19 1.17 1.15 1.14 1.13 1.12 1.10 1.09 1.05 1.04 1.03
0.46 0.38 0.39 0.32 0.27 0.28 0.22 0.22 0.24 0.23 0.19 0.25 0.35 0.37 0.41 0.37 0.34 0.31 0.22 0.19 0.24 0.28 0.29 0.29 0.31 0.35 0.39 0.46 0.54 0.59 0.58 0.46 0.41 0.48 0.63 0.72 0.78 0.78 0.81 0.81 0.83 0.83 0.83 0.84 0.87 0.88 0.89 0.92 0.96 1.00 1.00 1.01 1.04 1.08 1.13 1.15 1.16 1.18 1.18 1.18 1.18 1.18 1.18 1.19 1.20 1.24 1.25 1.26 1.28 1.28 1.27 1.26 1.22 1.19 1.20 1.19 1.17 1.16 1.16 1.14 1.10 1.07 1.07 1.05 1.04 1.02
0.46 0.45 0.41 0.34 0.29 0.27 0.24 0.21 0.21 0.21 0.24 0.35 0.37 0.40 0.42 0.42 0.36 0.37 0.21 0.18 0.24 0.30 0.32 0.36 0.35 0.39 0.43 0.45 0.53 0.55 0.42 0.32 0.37 0.46 0.62 0.75 0.80 0.83 0.80 0.81 0.81 0.81 0.82 0.81 0.80 0.80 0.84 0.89 0.93 0.97 1.01 1.02 1.00 1.07 1.13 1.17 1.17 1.13 1.08 1.10 1.14 1.17 1.16 1.18 1.22 1.24 1.25 1.28 1.32 1.32 1.30 1.27 1.23 1.21 1.20 1.17 1.17 1.18 1.15 1.10 1.07 1.07 1.07 1.07 1.05 1.04
0.40 0.39 0.37 0.31 0.28 0.28 0.26 0.23 0.22 0.27 0.30 0.39 0.43 0.43 0.44 0.44 0.39 0.27 0.16 0.17 0.26 0.33 0.37 0.38 0.37 0.41 0.47 0.52 0.55 0.46 0.33 0.26 0.34 0.43 0.62 0.72 0.80 0.81 0.75 0.72 0.73 0.75 0.78 0.82 0.84 0.85 0.87 0.91 0.91 0.92 0.93 0.95 1.00 1.07 1.09 1.13 1.14 1.11 1.11 1.13 1.13 1.10 1.12 1.17 1.21 1.25 1.29 1.26 1.30 1.30 1.32 1.32 1.26 1.23 1.20 1.20 1.21 1.18 1.12 1.08 1.05 1.05 1.05 1.05 1.05 1.05
0.34 0.34 0.34 0.30 0.29 0.29 0.28 0.27 0.30 0.31 0.44 0.48 0.46 0.47 0.45 0.42 0.32 0.19 0.15 0.19 0.32 0.36 0.40 0.40 0.40 0.45 0.49 0.48 0.50 0.40 0.39 0.41 0.46 0.54 0.60 0.69 0.68 0.69 0.74 0.78 0.77 0.78 0.76 0.78 0.81 0.86 0.85 0.89 0.90 0.90 0.93 0.97 1.01 1.04 1.08 1.10 1.10 1.11 1.13 1.13 1.11 1.10 1.14 1.20 1.27 1.30 1.30 1.30 1.32 1.31 1.32 1.30 1.27 1.22 1.26 1.26 1.21 1.14 1.10 1.09 1.06 1.03 1.01 1.02 1.04 1.03
0.31 0.32 0.33 0.34 0.31 0.29 0.30 0.26 0.28 0.35 0.46 0.53 0.53 0.46 0.45 0.31 0.20 0.18 0.24 0.44 0.40 0.40 0.44 0.43 0.41 0.43 0.47 0.48 0.50 0.49 0.48 0.50 0.52 0.55 0.57 0.63 0.66 0.68 0.73 0.75 0.77 0.77 0.80 0.82 0.83 0.84 0.84 0.86 0.89 0.92 0.96 1.01 1.03 1.04 1.06 1.08 1.08 1.11 1.10 1.12 1.14 1.18 1.23 1.25 1.23 1.23 1.25 1.27 1.30 1.31 1.30 1.27 1.27 1.26 1.25 1.22 1.19 1.12 1.10 1.11 1.12 1.06 1.03 1.04 1.06 1.00
0.31 0.28 0.29 0.30 0.34 0.34 0.33 0.29 0.28 0.24 0.43 0.63 0.54 0.43 0.45 0.28 0.27 0.43 0.46 0.48 0.47 0.45 0.43 0.43 0.43 0.44 0.47 0.48 0.52 0.54 0.52 0.51 0.51 0.51 0.57 0.62 0.64 0.65 0.69 0.71 0.72 0.73 0.73 0.75 0.78 0.84 0.83 0.82 0.85 0.89 0.93 0.99 1.02 1.04 1.07 1.09 1.08 1.11 1.09 1.05 1.14 1.24 1.26 1.28 1.29 1.28 1.28 1.28 1.29 1.31 1.29 1.28 1.25 1.28 1.27 1.21 1.17 1.14 1.11 1.12 1.11 1.08 1.08 1.05 1.02 0.99
0.40 0.30 0.30 0.33 0.36 0.31 0.29 0.27 0.29 0.42 0.58 0.63 0.55 0.37 0.44 0.50 0.58 0.58 0.54 0.48 0.50 0.48 0.43 0.42 0.42 0.45 0.47 0.49 0.51 0.55 0.54 0.50 0.50 0.52 0.56 0.60 0.64 0.67 0.70 0.73 0.75 0.76 0.78 0.80 0.81 0.81 0.82 0.81 0.85 0.87 0.93 0.97 1.01 1.04 1.07 1.08 1.07 1.07 1.05 1.09 1.20 1.22 1.24 1.25 1.27 1.29 1.28 1.28 1.29 1.28 1.28 1.28 1.27 1.25 1.21 1.20 1.17 1.14 1.12 1.09 1.07 1.06 1.06 1.04 1.01 0.98
0.42 0.38 0.38 0.32 0.37 0.36 0.35 0.42 0.56 0.64 0.67 0.70 0.67 0.63 0.63 0.67 0.69 0.68 0.62 0.57 0.51 0.49 0.52 0.44 0.43 0.47 0.52 0.55 0.58 0.60 0.53 0.53 0.51 0.54 0.54 0.57 0.62 0.65 0.67 0.70 0.74 0.75 0.77 0.78 0.79 0.83 0.83 0.82 0.83 0.86 0.89 0.94 0.97 1.02 1.04 1.07 1.06 1.06 1.04 1.10 1.19 1.21 1.15 1.18 1.23 1.25 1.26 1.24 1.25 1.27 1.27 1.27 1.26 1.20 1.16 1.15 1.14 1.10 1.08 1.05 1.05 1.03 1.05 1.05 1.03 1.00
0.57 0.58 0.58 0.55 0.49 0.60 0.64 0.66 0.69 0.69 0.70 0.71 0.74 0.74 0.69 0.69 0.71 0.71 0.65 0.58 0.58 0.57 0.55 0.49 0.50 0.53 0.56 0.62 0.63 0.60 0.57 0.57 0.55 0.55 0.57 0.59 0.62 0.67 0.72 0.74 0.76 0.79 0.80 0.81 0.81 0.83 0.84 0.86 0.86 0.86 0.86 0.89 0.95 0.99 1.04 1.06 1.07 1.03 1.05 1.12 1.14 1.17 1.17 1.17 1.19 1.20 1.20 1.23 1.24 1.25 1.26 1.26 1.25 1.22 1.18 1.16 1.14 1.12 1.11 1.08 1.05 1.02 1.00 1.00 0.99 0.95
0.55 0.57 0.55 0.48 0.56 0.48 0.42 0.64 0.62 0.63 0.71 0.71 0.72 0.76 0.78 0.77 0.74 0.73 0.69 0.66 0.64 0.63 0.61 0.59 0.58 0.59 0.62 0.66 0.67 0.63 0.61 0.62 0.59 0.60 0.62 0.65 0.66 0.70 0.73 0.75 0.77 0.79 0.80 0.79 0.83 0.85 0.84 0.84 0.82 0.83 0.85 0.86 0.93 0.98 1.02 1.05 1.07 1.08 1.10 1.11 1.14 1.15 1.17 1.17 1.16 1.14 1.12 1.15 1.18 1.20 1.23 1.22 1.19 1.16 1.15 1.14 1.13 1.12 1.11 1.09 1.07 1.04 1.01 1.00 0.94 0.91
0.43 0.61 0.52 0.50 0.50 0.46 0.49 0.61 0.64 0.68 0.69 0.73 0.72 0.69 0.70 0.73 0.75 0.75 0.74 0.74 0.74 0.73 0.69 0.66 0.67 0.65 0.68 0.69 0.74 0.72 0.68 0.69 0.66 0.66 0.67 0.69 0.71 0.75 0.77 0.78 0.80 0.82 0.85 0.86 0.87 0.88 0.86 0.84 0.83 0.84 0.86 0.88 0.93 0.96 0.98 1.02 1.05 1.08 1.09 1.11 1.14 1.17 1.16 1.14 1.14 1.13 1.13 1.13 1.15 1.16 1.16 1.17 1.17 1.15 1.12 1.11 1.11 1.09 1.08 1.08 1.05 1.01 0.98 0.96 0.94 0.92
0.52 0.57 0.42 0.49 0.48 0.57 0.64 0.66 0.66 0.67 0.67 0.68 0.71 0.73 0.73 0.73 0.72 0.73 0.75 0.76 0.77 0.75 0.72 0.72 0.73 0.72 0.73 0.75 0.82 0.80 0.74 0.73 0.74 0.75 0.74 0.75 0.78 0.80 0.81 0.81 0.82 0.83 0.85 0.85 0.87 0.89 0.86 0.85 0.85 0.87 0.88 0.91 0.94 0.95 0.97 0.98 1.02 1.07 1.09 1.10 1.11 1.13 1.10 1.08 1.11 1.14 1.11 1.10 1.10 1.11 1.12 1.12 1.11 1.11 1.08 1.07 1.07 1.07 1.06 1.03 1.00 0.98 0.98 1.00 0.99 1.00
0.51 0.43 0.52 0.51 0.43 0.44 0.47 0.55 0.62 0.48 0.47 0.59 0.65 0.69 0.71 0.74 0.74 0.73 0.75 0.74 0.75 0.73 0.75 0.73 0.73 0.78 0.81 0.83 0.84 0.84 0.79 0.78 0.81 0.83 0.80 0.79 0.80 0.81 0.81 0.81 0.83 0.83 0.85 0.88 0.89 0.90 0.89 0.89 0.87 0.88 0.89 0.92 0.94 0.96 0.95 0.96 1.00 1.05 1.08 1.10 1.11 1.11 1.08 1.07 1.07 1.07 1.08 1.11 1.11 1.11 1.10 1.09 1.08 1.06 1.05 1.04 1.03 1.02 1.01 1.02 1.01 1.00 0.97 0.95 0.99 1.02
0.49 0.51 0.52 0.46 0.42 0.43 0.57 0.64 0.66 0.62 0.60 0.62 0.65 0.69 0.72 0.74 0.73 0.71 0.69 0.71 0.74 0.77 0.79 0.79 0.77 0.78 0.79 0.83 0.93 0.95 0.88 0.86 0.88 0.90 0.85 0.83 0.83 0.86 0.87 0.86 0.84 0.84 0.85 0.88 0.87 0.87 0.87 0.88 0.87 0.87 0.88 0.91 0.94 0.95 0.95 0.97 1.00 1.02 1.05 1.08 1.09 1.09 1.07 1.07 1.05 1.05 1.06 1.08 1.10 1.12 1.12 1.11 1.08 1.05 1.02 1.00 0.97 0.95 0.94 0.94 0.97 0.97 0.95 0.97 1.01 1.01
Wind_Speed
37 37 39 39 39 38 37 35 31 26 27 29 28 27 26 26 24 23 22 22 23 23 23 25 25 26 25 23 24 24 25 26 25 25 24 24 25 24 24 24 23 23 22 20 19 19 20 20 20 19 18 17 17 17 16 16 16 16 17 18 18 19 19 20 21 21 20 19 18 17 16 16 15 15 15 14 14 13 12 11 11 10 10 10 9 9
37 39 40 38 36 35 35 34 30 26 26 27 28 27 25 25 23 22 23 22 23 22 21 22 24 26 24 23 24 24 25 26 26 26 25 25 25 25 25 25 24 22 21 20 19 19 20 20 20 20 19 18 18 17 17 17 17 17 18 18 19 19 19 20 21 21 21 19 18 17 16 16 16 16 15 14 14 13 12 11 11 11 10 10 9 9
38 39 38 36 34 34 35 35 31 27 26 26 27 27 25 24 21 21 21 21 23 22 20 20 22 24 22 21 23 25 25 25 26 27 26 26 26 25 25 24 24 23 22 21 20 20 21 21 20 20 20 19 18 18 18 17 17 18 19 19 20 20 20 20 20 21 21 20 19 18 16 16 16 16 15 14 13 13 12 11 11 11 10 10 9 9
37 37 37 35 35 35 35 35 33 28 27 26 26 27 26 24 22 21 21 21 21 21 20 20 21 21 20 20 22 24 25 25 26 27 26 26 26 25 25 24 23 23 23 22 21 21 21 21 20 20 20 20 19 19 18 18 18 19 20 21 21 21 21 20 20 21 21 20 20 19 17 16 16 16 15 14 13 12 12 12 11 11 11 10 9 9
34 33 36 35 35 36 35 36 35 30 27 26 26 27 26 25 23 20 20 20 20 20 20 19 19 20 20 21 21 22 23 24 25 27 27 27 27 26 25 25 24 23 23 23 22 21 21 21 21 20 21 20 19 19 19 19 19 20 20 21 22 22 21 21 21 20 20 20 20 18 17 17 16 15 15 14 13 12 12 12 12 11 11 10 9 9
33 31 34 36 35 36 35 36 36 33 28 26 26 26 24 25 24 20 20 21 21 21 21 20 19 19 19 21 21 20 22 24 24 26 27 27 27 27 26 26 25 24 23 23 22 21 21 21 21 20 21 21 20 20 20 20 20 20 20 21 22 22 21 21 21 20 20 20 20 19 19 18 16 15 14 13 13 12 12 12 12 11 11 10 9 9
34 31 32 36 35 36 35 35 36 34 29 27 26 25 23 23 23 21 21 21 22 21 20 21 21 18 18 20 20 20 21 23 23 24 26 26 26 27 27 26 25 24 23 23 22 22 22 22 22 21 21 21 20 20 20 20 21 21 20 21 22 21 21 21 21 21 20 20 20 20 20 18 17 15 14 14 13 13 13 12 12 11 10 10 9 9
35 33 32 35 36 35 35 34 34 34 31 27 25 25 24 22 22 22 21 21 20 20 19 20 21 19 19 19 19 20 21 21 22 23 23 24 25 26 27 26 25 24 23 23 23 22 22 22 22 22 21 21 20 20 20 20 21 21 22 22 23 23 22 21 22 22 21 20 20 20 19 18 17 15 15 14 14 13 12 12 11 11 10 9 9 8
36 35 32 34 36 35 34 33 32 34 31 27 24 25 24 22 22 21 21 20 19 20 21 21 21 21 20 19 18 20 21 21 22 22 22 22 23 25 25 25 25 24 23 23 23 23 22 22 22 22 21 20 20 20 20 21 21 22 22 23 24 24 23 23 23 22 21 20 20 20 19 18 16 16 15 14 14 13 12 12 12 11 10 9 9 8
32 35 33 33 34 34 33 31 32 33 30 27 25 23 22 21 21 21 21 20 19 20 22 22 22 21 20 20 20 20 20 21 20 20 20 21 22 23 23 24 24 24 24 23 23 22 22 22 22 22 21 20 20 20 21 22 22 22 23 23 24 24 23 23 23 22 21 21 20 19 19 18 17 16 16 15 14 13 13 12 12 12 11 9 9 8
28 33 33 31 32 32 31 31 32 32 29 27 27 24 22 21 21 21 20 20 20 21 22 22 22 21 20 19 21 22 20 19 19 18 19 19 20 21 22 22 23 23 23 23 22 22 22 22 22 22 22 21 20 20 21 22 22 23 23 23 22 21 20 22 23 22 22 21 21 20 19 18 17 17 16 15 14 14 13 13 12 12 11 10 9 8
27 31 32 31 31 31 30 31 31 31 29 28 28 27 24 21 20 21 20 21 22 22 21 22 22 21 22 19 19 21 20 19 19 18 18 19 20 20 21 21 21 22 23 22 22 22 21 22 22 22 22 21 20 20 21 22 23 24 23 21 19 19 19 21 22 22 21 21 20 20 19 18 17 17 17 15 14 14 14 14 13 12 11 10 9 9
28 30 31 31 32 33 31 31 31 30 30 30 29 29 26 23 22 22 22 22 22 20 19 22 23 22 22 21 19 20 20 19 19 18 18 18 19 19 19 19 20 21 22 22 22 22 22 22 22 22 22 21 21 20 21 22 23 23 22 20 19 19 20 21 22 22 22 22 21 20 18 17 17 17 16 16 15 14 14 14 13 12 11 10 9 8
28 28 31 32 32 34 34 33 33 32 32 32 31 31 29 25 24 24 23 21 21 20 19 20 21 21 20 20 21 22 21 19 19 19 19 18 17 17 18 18 19 20 21 22 22 22 22 22 22 22 21 21 20 20 20 21 22 22 21 20 20 21 21 21 22 22 22 21 20 19 18 17 17 16 16 16 15 15 15 14 14 12 11 10 9 8
30 28 32 34 31 34 35 33 32 31 31 31 29 29 28 25 23 23 22 21 20 19 19 19 20 20 19 19 19 19 18 17 18 18 18 18 17 17 17 18 19 20 21 22 23 22 22 23 23 21 21 21 21 20 20 21 22 22 21 21 21 21 21 22 22 21 20 20 18 17 17 17 16 16 15 16 16 16 15 14 14 13 11 10 8 8
30 25 30 32 30 34 35 31 30 30 30 29 28 28 28 25 21 19 19 19 18 17 19 20 20 18 17 17 17 17 17 17 17 17 18 18 17 17 16 17 18 19 21 21 22 22 22 22 22 21 20 20 21 21 21 21 22 22 23 22 20 20 21 21 21 20 19 19 17 16 17 17 16 16 15 15 16 16 16 14 14 13 11 10 9 8
29 24 28 32 30 33 34 30 31 32 30 29 29 30 28 24 21 19 18 17 18 18 18 19 21 19 17 16 18 18 18 17 16 16 18 18 17 17 17 17 18 19 20 20 21 21 21 21 21 21 21 20 21 21 21 21 22 22 22 22 21 20 20 21 20 18 17 18 17 17 16 17 16 16 15 16 17 17 16 14 14 13 11 10 9 9
28 24 27 32 30 31 32 30 31 30 29 30 31 29 26 23 21 19 18 18 19 20 18 18 21 21 18 16 15 17 19 18 16 16 17 17 17 17 17 17 17 18 18 19 20 20 20 20 20 20 21 21 21 21 21 22 22 22 22 22 21 20 20 21 20 18 18 18 18 17 17 17 16 16 15 16 17 17 16 15 14 13 12 11 10 9
28 24 25 31 30 30 31 31 31 30 29 29 29 27 25 25 24 20 18 19 19 18 17 18 19 20 20 18 15 16 19 18 16 16 17 17 18 17 17 17 18 18 18 18 19 19 19 19 19 20 20 20 21 21 21 22 22 22 21 21 20 18 19 19 19 18 18 18 18 17 17 17 16 16 16 17 18 17 16 15 14 13 12 11 10 9
28 24 23 29 29 28 31 32 32 32 30 27 28 28 26 24 24 22 18 18 19 18 16 16 17 18 20 19 17 17 17 17 17 17 17 18 18 17 16 16 18 19 19 18 19 19 19 18 19 20 20 20 20 20 21 22 22 22 21 20 19 18 18 18 18 18 18 18 18 17 17 17 17 16 17 17 18 17 16 15 14 14 13 12 11 10
27 24 23 28 28 29 32 33 33 34 32 30 30 30 28 24 23 22 19 16 16 16 16 16 16 17 18 17 18 17 15 16 17 17 17 17 17 16 14 15 17 18 18 18 18 18 18 18 19 19 20 20 19 19 20 21 22 22 21 20 19 18 18 18 18 18 18 18 18 17 18 18 17 17 18 18 18 17 16 16 15 14 13 12 11 10
27 24 23 28 29 29 31 31 31 32 32 31 30 30 29 26 24 24 21 18 16 14 14 15 14 15 15 16 17 15 13 15 17 17 17 17 17 16 15 15 16 17 17 17 17 17 17 17 18 19 19 19 18 18 20 21 21 21 20 20 19 18 18 18 18 18 18 18 18 17 18 18 17 18 18 18 18 17 16 16 16 14 13 12 11 11
26 24 23 26 27 26 26 28 30 31 30 29 28 28 28 26 26 26 23 20 18 14 13 13 13 13 13 14 16 15 14 14 16 17 17 17 18 17 17 17 16 16 16 16 16 16 15 16 17 18 18 18 18 19 20 21 21 21 20 20 20 19 19 19 18 18 18 18 18 18 18 18 17 18 18 18 18 17 17 17 16 15 13 12 12 11
24 23 22 24 24 23 22 25 28 29 29 29 29 28 28 27 25 24 22 20 19 16 14 13 13 12 12 13 15 15 14 14 14 16 17 17 18 18 18 18 17 16 16 16 15 15 14 15 16 16 17 17 18 19 21 21 21 21 20 20 19 19 18 18 18 18 18 18 18 18 18 18 18 18 18 18 18 18 18 18 17 15 14 13 12 12
22 22 22 24 25 23 22 23 27 30 31 31 29 28 28 27 24 22 20 21 21 19 16 14 13 12 12 14 14 14 14 13 13 15 16 16 17 18 19 18 17 17 16 16 15 14 14 14 15 16 16 17 18 20 21 21 21 20 20 19 19 18 18 18 18 18 19 19 18 18 18 18 18 18 18 18 19 19 19 18 17 16 15 14 13 12
20 21 22 24 26 26 25 26 28 31 32 30 29 29 29 28 26 23 21 22 21 19 17 16 14 12 12 13 14 13 14 13 13 15 16 16 16 17 18 18 18 18 17 16 15 15 15 15 15 16 16 18 19 20 21 21 20 20 20 19 19 18 18 18 19 19 19 19 19 18 18 18 18 19 19 19 19 19 19 18 18 16 15 14 13 13
19 21 21 22 26 26 24 24 26 30 31 30 30 30 29 28 27 24 22 22 21 18 18 18 15 12 12 13 13 13 14 14 14 14 16 16 16 17 18 19 18 18 17 17 16 15 16 16 16 17 17 18 20 20 20 20 20 20 20 19 19 18 18 19 19 19 19 19 19 19 18 18 18 19 19 19 19 20 19 19 18 17 16 15 14 14
19 19 19 20 23 24 22 21 25 30 31 30 30 30 29 28 27 25 23 22 20 19 18 17 15 14 14 13 12 13 14 14 14 14 15 16 16 17 18 19 19 18 18 18 17 16 16 16 17 18 18 19 20 20 20 20 19 19 19 19 19 18 19 19 19 19 19 19 19 19 18 18 18 19 19 19 19 19 19 19 18 18 17 16 15 15
19 18 19 19 20 23 24 22 24 28 29 29 30 30 29 28 28 28 24 21 21 20 17 15 15 16 15 13 12 13 14 15 14 14 15 16 17 17 18 18 19 18 18 18 17 17 17 17 17 18 18 18 20 21 21 20 20 19 19 19 19 19 19 19 19 19 18 18 19 18 18 18 18 19 19 19 20 19 19 19 18 18 18 17 16 15
18 18 18 18 18 21 24 24 23 26 28 28 30 30 30 28 27 28 25 22 21 19 16 14 15 16 15 13 13 13 14 15 14 14 16 17 17 17 18 18 18 17 17 17 17 17 17 17 17 18 18 18 20 21 21 20 20 20 20 19 19 19 19 19 19 19 19 19 19 18 18 19 19 19 19 19 20 19 19 19 19 19 18 18 17 16
18 17 17 17 16 19 23 24 23 24 27 28 28 29 30 28 27 26 25 22 21 20 18 15 15 16 14 13 13 13 14 15 15 16 17 18 18 18 18 18 17 16 16 16 16 17 17 17 17 18 18 18 19 21 21 20 21 21 20 20 20 20 20 20 20 20 20 20 20 19 19 20 20 20 19 20 20 20 20 19 19 19 19 19 18 18
17 17 16 15 15 18 22 23 23 23 24 26 27 29 30 29 27 25 23 22 22 21 19 16 16 15 14 12 12 13 15 16 16 17 18 18 18 19 18 18 16 16 16 16 16 16 17 17 18 18 19 19 19 20 20 20 21 22 21 21 21 21 20 20 21 21 21 21 21 21 21 21 21 21 20 20 20 20 20 20 20 20 19 19 19 18
16 16 15 14 15 17 21 22 23 22 22 23 26 27 29 28 27 24 22 22 22 21 19 18 16 14 13 13 12 13 15 16 16 18 18 19 20 20 18 18 17 17 16 16 16 16 17 17 18 18 19 20 21 21 20 20 21 22 22 22 22 22 22 22 22 21 22 22 22 22 22 22 22 22 21 21 21 21 20 20 20 20 20 19 19 19
16 15 15 15 15 17 20 22 22 21 21 21 22 23 25 26 26 25 23 23 22 20 18 17 15 13 14 14 13 13 14 15 16 18 19 19 20 19 18 18 17 17 17 16 15 15 16 17 18 19 19 20 21 21 21 21 21 21 22 22 22 22 23 23 22 22 23 23 23 23 23 23 23 23 22 22 22 21 21 20 20 20 20 19 19 19
16 15 15 15 15 16 20 21 21 20 19 18 19 21 21 22 24 24 22 21 21 20 18 16 15 15 15 14 13 12 13 14 15 17 19 19 19 19 18 18 17 16 16 16 15 15 16 17 18 19 19 19 19 19 20 20 21 21 21 21 21 22 23 23 22 23 24 24 24 24 23 24 24 24 23 22 22 22 21 21 21 20 20 20 20 19
15 14 14 15 16 18 20 21 19 18 17 17 18 21 21 21 22 23 21 21 21 21 20 17 16 15 15 14 13 12 12 12 13 15 17 19 20 19 18 17 16 16 16 16 16 16 16 16 17 18 19 18 18 19 19 19 20 21 22 22 22 22 23 24 23 24 25 25 25 24 24 24 25 24 23 23 22 22 22 21 21 21 21 20 20 19
14 14 14 15 16 18 19 18 16 16 16 17 18 21 21 21 22 22 21 20 20 20 20 18 16 15 15 14 13 13 12 11 11 13 16 19 20 20 18 16 15 15 15 15 15 16 16 16 17 18 18 18 18 19 19 19 20 21 22 23 23 22 23 24 24 24 25 26 25 25 25 25 25 24 24 23 23 23 22 22 21 21 21 21 20 19
13 14 15 15 16 18 19 17 16 16 16 17 19 21 21 21 20 20 19 19 18 19 20 19 17 17 16 15 15 15 13 11 10 11 15 18 19 19 17 15 14 14 14 14 14 14 14 15 15 16 17 18 18 18 18 19 20 21 22 23 23 23 23 23 24 25 26 28 28 26 25 25 24 24 24 24 23 23 22 22 22 21 21 21 21 20
13 13 14 15 16 17 18 17 16 15 15 16 19 20 20 21 20 19 19 18 18 18 19 19 19 18 18 17 16 15 13 11 10 11 14 17 18 18 16 15 14 13 13 13 12 12 12 13 13 14 15 16 17 17 18 19 20 21 21 22 23 23 23 23 24 25 27 29 29 28 26 25 24 24 24 24 23 23 22 21 21 21 21 21 21 21
14 13 14 15 16 17 17 15 14 14 14 16 17 18 19 20 20 19 19 18 17 17 18 19 19 19 19 18 17 15 13 11 11 11 13 16 16 17 16 14 13 13 12 12 12 11 11 12 12 13 14 15 15 17 18 18 19 20 21 21 22 23 23 23 24 25 26 27 28 28 27 25 24 24 24 24 23 22 22 21 21 21 21 21 21 21
13 13 14 15 15 16 16 14 14 14 15 16 16 16 19 20 20 19 18 16 16 17 17 18 18 20 20 19 17 15 13 12 12 12 13 15 16 15 15 13 12 12 12 12 11 11 11 12 13 13 14 14 14 16 17 18 19 19 20 21 22 22 23 23 24 25 25 26 27 28 28 26 24 24 24 24 23 22 21 21 22 21 21 22 22 21
13 13 14 14 14 15 14 13 13 14 15 15 15 16 18 19 19 18 15 15 16 16 16 17 18 19 19 19 16 14 14 13 12 13 14 15 15 15 14 13 12 12 11 11 11 11 12 13 14 14 14 14 14 15 17 18 19 19 20 21 21 21 22 22 23 24 24 24 26 27 27 26 24 23 23 23 22 21 21 21 21 21 20 20 21 21
13 13 13 14 14 13 13 13 12 13 14 14 14 15 17 17 16 16 15 15 16 16 16 16 17 18 19 18 16 15 15 13 12 13 15 15 15 15 14 14 13 12 12 12 12 12 12 13 14 15 15 15 15 15 16 18 18 18 18 18 19 19 20 20 20 21 22 23 25 26 27 26 24 22 22 22 22 22 21 21 21 20 20 20 21 21
12 12 13 14 13 12 12 12 12 12 13 13 13 15 15 15 15 15 15 15 15 15 15 16 16 17 19 18 16 15 14 13 13 14 14 14 15 15 14 14 13 13 13 12 12 13 13 13 14 15 15 15 16 16 17 17 18 17 17 17 17 17 18 18 18 19 19 20 23 25 26 25 24 23 22 22 22 22 22 21 21 21 21 20 21 22
10 11 12 12 13 12 11 11 11 12 12 12 13 13 14 14 15 15 16 15 15 15 15 15 16 17 18 18 16 15 14 14 13 14 14 14 14 14 14 13 13 12 12 12 12 13 13 13 14 14 15 15 16 17 17 18 18 18 17 17 17 16 16 16 17 17 17 18 20 22 23 23 23 23 22 22 22 22 22 22 21 21 21 21 22 22
9 10 11 12 13 12 11 10 11 11 10 11 12 13 13 13 14 14 14 15 14 14 15 15 16 17 18 17 16 15 14 14 14 14 14 14 13 13 13 13 12 12 12 12 12 13 13 13 14 14 15 15 16 17 17 18 19 18 18 17 17 16 16 16 16 16 16 18 18 20 21 21 21 22 22 23 23 23 23 23 22 22 21 21 21 22
10 10 11 12 12 12 11 11 10 10 9 10 11 11 11 12 12 12 13 13 13 13 14 15 16 16 17 17 16 16 15 15 14 14 14 14 13 13 13 12 12 12 12 12 12 13 13 13 14 14 15 15 16 16 17 18 18 18 18 18 17 16 16 16 16 16 17 18 18 19 19 20 20 20 21 21 22 23 23 23 22 22 22 21 21 22
10 10 10 11 11 11 11 12 11 10 9 9 10 10 10 10 10 11 11 12 12 12 13 14 15 16 17 17 17 17 16 15 15 14 14 14 14 13 13 13 12 12 12 12 12 12 12 12 13 14 15 16 16 16 16 17 17 18 18 18 17 17 16 16 16 16 17 19 19 19 19 19 19 19 20 20 21 21 21 22 22 22 22 22 22 22
10 9 9 10 11 11 11 12 12 11 10 9 9 9 9 9 9 10 10 10 11 11 11 12 13 14 16 17 17 17 17 15 14 15 15 14 14 14 13 13 13 13 13 13 13 13 12 12 13 13 15 16 16 16 15 16 17 18 18 18 17 17 17 16 16 17 17 18 19 19 19 18 18 19 19 20 20 20 20 21 22 22 22 23 23 22
10 10 9 10 11 12 11 11 12 11 10 9 8 7 8 8 9 9 9 8 9 9 10 11 12 12 14 15 16 16 16 15 14 14 15 14 14 14 13 13 13 13 13 13 13 13 13 13 13 13 14 15 16 16 16 16 16 17 18 18 18 18 17 17 16 16 17 17 18 18 18 18 18 18 19 19 19 19 19 20 21 21 22 22 22 21
10 10 10 10 10 10 11 11 11 10 9 9 8 8 7 8 8 8 8 8 8 9 9 10 11 11 11 13 14 15 15 15 14 14 14 14 14 13 13 13 13 13 13 13 13 13 13 13 13 13 14 14 15 15 15 15 16 17 17 18 18 18 18 17 17 17 17 18 18 18 18 18 18 19 19 20 19 19 19 19 20 20 20 20 20 19
Wind_Direction
208 209 210 211 211 209 209 209 212 215 211 208 211 213 213 214 215 216 216 216 215 216 220 220 222 224 220 218 219 218 218 220 222 221 221 221 222 223 224 227 229 231 233 232 231 229 228 228 228 228 229 229 230 231 231 231 229 225 221 219 219 217 216 216 216 216 216 217 217 216 216 218 221 225 227 228 230 231 233 238 241 244 247 249 252 257
208 211 212 211 210 208 207 208 210 213 211 208 209 211 213 214 213 213 214 214 214 216 219 218 221 223 220 218 220 219 218 219 220 220 221 221 223 225 227 229 230 231 232 231 231 229 228 228 227 227 227 227 228 229 230 230 229 225 221 219 218 216 214 213 215 214 215 216 216 217 217 218 221 224 224 226 229 230 232 236 240 242 244 247 250 256
209 212 210 208 207 206 206 207 208 209 210 210 210 210 211 211 209 210 213 214 212 215 217 214 219 222 219 218 220 220 219 219 219 220 221 220 222 225 227 229 229 231 232 231 230 229 229 228 226 226 226 226 227 228 229 230 228 225 221 220 218 214 211 211 213 214 215 215 215 217 217 218 220 221 221 223 228 230 232 235 237 239 242 245 249 255
208 211 207 205 205 203 204 205 206 207 209 210 209 208 209 208 206 205 208 211 210 215 216 212 218 221 217 219 222 222 222 221 220 222 223 224 224 225 227 228 229 231 232 231 230 229 229 227 226 225 224 225 226 227 230 230 228 226 223 220 215 212 211 211 212 215 217 216 215 216 216 216 216 216 217 221 226 229 231 233 234 237 240 244 248 254
207 208 204 202 203 202 202 203 204 206 207 209 209 208 207 205 206 204 204 207 209 214 213 210 217 221 217 218 222 223 223 223 222 224 226 226 227 228 229 230 231 232 232 231 229 228 227 226 225 224 224 224 225 227 230 230 229 228 225 221 215 211 211 210 210 213 215 212 211 212 213 213 212 212 215 220 225 228 229 229 231 235 238 242 247 253
207 207 203 201 202 201 201 203 204 204 204 206 209 208 205 202 203 203 204 205 207 211 212 211 216 219 216 217 218 218 221 223 224 226 227 227 227 228 230 231 232 234 234 232 230 227 226 224 223 223 224 224 225 227 229 230 230 228 226 223 218 214 211 210 209 210 210 209 208 208 208 209 208 210 216 221 224 226 226 226 228 232 235 239 245 253
206 205 203 201 201 200 201 203 204 203 203 204 206 205 203 201 200 201 204 206 208 210 212 214 217 217 215 216 217 216 219 222 223 226 228 227 228 229 231 231 232 233 233 231 230 227 225 223 222 223 223 224 226 227 228 230 230 229 226 223 221 216 212 210 207 207 207 208 207 206 206 207 208 211 216 220 222 223 224 225 226 228 231 236 244 252
203 202 202 200 199 200 202 203 203 202 203 203 202 200 200 200 199 200 203 207 211 212 212 214 217 220 219 217 217 217 219 223 224 227 229 228 228 230 231 232 231 231 230 228 228 227 225 223 222 222 222 224 226 227 228 229 229 228 226 224 220 215 213 211 208 207 209 209 206 204 205 207 210 213 216 218 218 220 223 225 224 225 228 234 243 252
201 201 200 199 199 201 202 201 200 201 203 202 198 196 198 198 198 200 204 207 210 213 213 212 212 219 222 218 217 218 221 225 225 226 228 228 228 229 230 230 230 229 227 227 227 226 224 223 222 221 221 223 225 227 228 228 228 228 227 225 219 214 213 212 209 209 211 210 206 204 206 207 211 213 214 215 216 218 222 222 221 221 226 234 244 254
202 201 199 199 200 201 200 198 198 199 202 200 194 193 196 198 200 202 207 208 211 215 214 210 210 218 223 219 218 219 221 224 225 226 228 228 228 228 227 227 226 225 225 226 225 224 223 222 222 221 221 222 224 226 227 227 227 227 226 224 218 213 211 210 210 210 210 209 207 208 209 209 211 211 212 214 216 218 220 220 218 219 225 233 243 253
201 199 198 200 200 199 198 196 197 198 199 195 193 195 196 201 204 206 209 211 214 218 215 209 211 219 224 221 219 221 222 222 224 227 228 227 227 225 223 222 222 222 223 223 223 222 221 221 222 222 221 221 223 225 226 226 227 227 226 221 215 212 210 211 212 210 208 208 209 211 211 211 211 210 211 214 215 216 218 216 215 219 225 231 239 247
197 196 197 199 198 196 195 195 196 197 195 193 195 196 197 200 203 205 209 211 215 218 214 211 212 218 224 222 219 223 224 222 224 226 225 225 223 220 219 218 218 220 221 221 220 219 220 220 221 220 219 219 221 223 224 225 226 227 224 218 214 213 212 213 213 209 206 208 209 211 212 212 211 210 211 213 213 215 214 211 214 219 222 228 236 242
196 195 196 197 196 195 193 192 194 195 195 194 194 194 195 197 200 204 207 209 214 216 213 212 214 220 226 225 223 225 225 225 226 226 226 224 220 216 215 215 216 218 219 219 218 218 219 220 220 219 219 219 220 222 223 224 226 226 222 218 218 216 213 214 214 210 207 207 207 209 212 212 211 212 213 213 213 214 211 210 214 217 219 227 234 238
194 195 196 195 195 196 194 192 192 194 194 194 194 194 196 197 199 204 206 208 213 213 211 212 215 223 228 225 224 226 225 225 224 225 226 224 218 214 212 213 215 216 217 217 217 218 219 221 221 220 219 219 220 222 222 223 226 225 221 220 220 217 215 216 216 212 209 207 205 207 212 212 211 212 213 215 216 214 211 213 215 215 218 225 231 233
191 194 195 194 194 194 194 195 194 192 192 194 195 196 199 201 202 204 206 207 209 209 209 210 215 221 222 220 221 224 226 225 224 225 225 220 215 212 211 212 214 214 214 214 216 218 220 220 220 220 219 220 221 221 222 223 224 223 221 219 218 216 215 217 217 213 209 207 205 206 211 212 212 213 215 219 218 212 210 213 214 213 217 223 227 230
192 194 193 194 195 193 193 195 192 189 191 195 195 197 201 202 203 204 207 208 208 209 210 212 219 223 223 222 220 220 223 222 222 222 218 214 209 207 209 210 212 213 212 213 215 217 220 220 219 219 218 219 221 221 221 222 223 223 221 218 216 214 214 216 216 213 210 209 209 209 211 212 212 214 216 217 213 207 208 212 212 213 216 221 227 229
191 192 191 192 195 194 192 192 192 192 192 194 196 199 200 199 200 202 205 209 211 214 213 214 221 225 227 226 218 217 219 216 216 216 212 210 206 204 208 210 211 212 212 213 215 216 218 218 218 218 218 218 219 221 221 222 222 222 219 215 214 213 212 214 215 214 213 212 211 212 213 213 214 215 216 214 209 206 208 210 212 214 217 222 228 228
190 187 190 191 192 194 191 189 194 196 193 193 197 197 195 197 203 204 204 206 209 213 214 214 219 221 222 221 215 215 218 216 213 210 208 207 205 206 210 210 212 214 214 215 216 215 216 215 216 218 219 219 219 221 222 221 221 222 218 214 211 209 208 210 214 216 214 212 212 214 214 214 216 217 216 211 206 206 208 210 213 217 219 224 227 226
190 185 188 192 191 191 190 190 193 197 197 197 197 195 195 199 203 202 203 205 205 210 214 214 219 220 217 216 213 211 215 215 210 206 207 206 204 208 211 211 215 216 216 216 214 213 213 212 214 216 218 219 219 221 221 220 219 219 216 212 210 209 208 209 213 214 212 211 213 215 215 215 216 217 214 208 205 206 208 211 214 217 220 223 224 223
189 186 187 191 189 187 190 193 194 194 195 197 195 195 199 202 201 200 204 205 204 208 212 213 218 221 216 214 215 213 211 209 206 204 206 205 205 209 211 212 215 214 214 213 211 211 212 212 214 215 216 216 219 221 220 216 214 213 212 210 212 212 209 209 211 211 208 209 213 215 215 216 216 216 212 206 205 207 209 212 215 216 217 219 221 222
187 188 184 186 187 187 192 196 195 192 191 193 194 194 197 200 199 200 204 205 205 207 210 212 217 220 215 209 212 213 206 203 205 205 205 204 205 209 209 208 208 207 208 209 210 212 213 213 213 213 213 214 218 219 215 209 207 209 209 209 211 210 208 209 211 209 208 209 212 214 214 214 214 213 209 205 205 208 210 213 215 214 215 218 221 222
185 187 184 184 187 191 193 194 193 193 192 193 195 195 196 197 196 199 202 204 205 206 208 212 218 220 213 205 207 208 203 204 206 204 203 203 204 207 207 205 203 203 205 208 210 210 211 211 209 208 210 212 214 213 207 203 204 207 208 208 209 210 209 210 210 210 210 210 212 213 212 213 212 210 207 205 207 209 210 213 212 212 215 219 222 222
183 185 183 184 188 191 191 191 191 192 193 195 197 197 198 199 198 200 202 201 202 205 206 211 218 216 206 200 204 207 206 208 207 204 203 202 204 206 206 205 203 204 206 208 208 208 208 208 205 205 207 209 209 205 202 201 204 206 207 207 208 208 209 210 210 212 212 211 212 212 212 212 210 207 207 207 209 209 210 211 210 212 217 222 224 224
182 183 180 178 183 187 188 189 190 191 192 196 198 198 199 201 201 202 203 202 204 206 205 208 214 211 200 198 202 205 207 208 206 205 204 202 204 206 205 204 204 205 206 207 207 206 206 205 204 205 207 207 204 202 200 201 204 206 206 207 208 208 208 210 211 212 212 211 211 211 212 212 209 208 208 209 210 210 210 210 211 214 220 224 225 226
181 184 179 176 180 183 183 185 189 191 194 196 197 196 198 199 199 201 202 203 206 208 204 206 211 204 196 197 199 199 201 202 203 205 204 202 204 206 205 203 202 203 205 206 207 207 206 205 204 206 206 204 202 201 200 201 203 205 207 208 209 209 209 211 212 212 212 211 211 211 212 212 211 210 209 209 210 210 210 211 214 218 223 226 227 227
179 182 181 181 183 184 183 187 190 190 192 194 194 194 196 197 196 198 200 201 205 205 203 207 210 202 194 194 194 195 196 198 201 204 205 204 204 204 203 202 201 202 205 206 207 208 208 208 207 206 204 202 201 201 201 201 203 205 208 209 210 211 211 212 213 214 213 212 211 211 212 211 211 210 209 209 210 211 212 214 218 222 226 228 228 227
179 182 183 187 189 188 186 187 188 187 189 192 191 192 195 196 196 197 199 201 201 198 202 209 210 208 205 197 193 194 196 198 201 202 204 204 202 200 199 199 200 203 206 208 210 211 212 212 211 208 205 203 202 202 201 201 202 205 208 210 211 212 212 213 215 215 215 214 211 211 212 212 211 210 210 210 211 213 215 218 221 224 227 229 229 227
180 182 183 186 189 191 190 188 187 187 189 191 190 191 194 195 196 199 200 200 198 196 203 208 205 208 211 202 196 198 197 198 201 202 201 199 196 196 197 198 200 203 207 210 212 214 214 214 212 210 208 205 204 203 202 202 203 205 208 209 212 214 214 214 215 215 216 215 212 211 213 213 212 212 212 213 214 216 218 221 223 226 228 230 229 228
180 182 183 184 187 192 193 192 190 189 189 192 192 193 194 195 197 200 201 199 198 200 204 204 201 206 210 203 201 204 202 199 199 198 196 193 193 194 196 198 201 205 208 211 213 215 216 216 213 210 209 208 205 204 204 206 206 207 209 211 213 216 216 216 215 215 216 216 213 213 215 214 213 213 213 214 216 218 220 222 225 226 228 229 230 230
180 181 183 185 188 191 192 191 190 189 189 191 194 195 195 196 197 200 201 200 201 204 203 203 205 208 210 207 205 207 205 201 196 191 189 190 192 195 197 201 204 207 210 212 214 217 218 216 214 211 209 208 205 204 206 209 210 211 212 214 216 218 218 218 218 217 217 217 217 217 216 215 214 214 215 216 217 219 220 223 225 226 227 229 229 231
179 180 180 184 187 187 187 186 187 189 189 191 194 196 196 197 198 200 202 201 204 206 202 203 211 211 208 208 209 210 207 201 196 192 190 191 193 196 200 205 207 208 210 212 214 216 216 214 213 212 210 208 205 205 208 212 214 214 216 217 219 220 221 222 220 219 219 219 219 218 217 215 215 215 216 218 218 219 221 224 225 226 227 228 229 231
180 181 180 184 186 183 183 184 184 186 189 192 195 196 196 197 199 200 201 200 202 203 201 205 213 208 202 203 209 210 208 205 202 198 196 196 197 200 204 206 207 207 208 209 210 212 212 209 209 211 211 211 210 209 211 215 217 217 219 222 224 225 226 224 222 221 221 221 220 219 217 217 217 217 218 219 219 221 223 225 225 226 226 226 228 230
179 181 180 183 185 181 180 182 181 181 187 194 197 196 196 197 198 199 200 201 202 201 202 206 209 204 199 202 205 207 209 210 208 203 201 201 202 204 206 205 205 207 207 208 209 211 211 210 209 212 213 215 216 216 218 219 219 220 223 226 229 229 227 225 223 223 223 222 221 220 219 218 218 218 219 220 221 223 225 225 225 225 225 226 228 230
177 179 180 182 182 180 178 177 177 181 189 195 196 195 195 196 196 197 200 202 201 201 205 208 207 206 206 207 209 209 209 210 209 205 204 204 204 205 206 205 206 208 209 210 212 213 215 215 214 214 214 216 219 221 223 223 223 225 226 228 230 230 226 224 224 225 225 223 222 221 220 219 220 220 221 221 222 224 226 226 225 225 225 226 228 230
176 176 179 180 180 180 177 174 178 186 192 194 194 194 194 196 197 198 200 202 201 203 208 210 210 211 211 212 215 213 209 208 207 205 206 206 204 202 204 206 207 209 210 212 214 216 217 218 217 216 216 218 220 222 225 226 227 228 228 228 230 231 228 225 226 227 226 223 222 222 222 221 221 221 221 222 224 225 227 227 225 225 226 228 230 231
176 174 177 179 178 178 177 177 182 187 188 189 190 189 190 193 195 197 201 203 202 203 206 208 209 208 208 211 213 209 206 207 206 205 205 205 202 201 203 206 207 210 212 213 215 217 217 218 218 218 219 220 222 224 227 229 229 228 228 228 229 231 230 227 226 227 227 224 221 221 223 222 221 221 222 223 225 226 227 227 227 227 227 229 230 232
178 176 178 179 178 179 178 178 181 184 185 186 188 188 190 192 193 196 201 202 200 200 203 204 204 202 202 205 203 198 197 198 201 205 205 202 201 202 205 208 210 212 215 217 218 219 219 220 220 220 220 222 224 225 227 229 229 229 228 229 229 230 230 228 226 226 227 224 221 221 222 222 222 222 223 224 225 226 227 228 227 227 227 227 228 231
178 180 181 179 179 180 178 177 180 184 185 188 190 190 191 193 194 196 200 201 199 199 201 202 200 197 196 198 196 192 192 192 195 200 198 197 199 202 206 211 214 216 218 219 219 221 222 222 221 221 222 223 224 225 227 229 229 229 229 231 231 231 230 230 229 229 228 225 223 221 220 221 222 223 223 224 224 225 228 229 228 227 227 227 229 232
174 178 181 181 182 182 181 181 184 186 186 188 191 192 193 195 196 196 200 202 199 198 199 201 199 195 195 197 195 194 195 194 194 196 192 191 196 202 206 211 214 215 217 216 217 219 221 221 221 222 224 226 227 227 228 229 231 231 232 233 234 233 233 233 233 233 230 227 224 221 218 218 221 223 223 223 224 226 229 229 227 227 227 229 231 232
177 178 181 183 183 182 182 183 185 188 188 188 191 193 194 195 194 196 200 201 198 197 199 200 199 197 197 200 200 201 203 200 197 198 194 191 195 202 207 210 211 212 213 214 216 219 221 222 223 224 227 229 231 231 230 230 232 233 234 236 236 236 236 236 237 235 232 228 225 222 219 218 221 224 224 224 225 228 230 228 226 227 229 231 231 231
178 178 180 182 180 180 181 181 184 188 188 189 193 194 193 193 194 198 200 199 198 200 200 199 200 199 200 202 204 207 208 206 204 203 196 192 195 201 206 210 212 213 215 218 221 224 226 228 230 232 233 233 234 234 233 233 235 236 237 238 237 237 238 238 239 237 233 229 226 222 219 219 222 225 225 224 226 228 228 227 228 230 232 232 229 229
175 175 177 178 177 179 179 179 182 187 187 190 195 196 194 194 196 199 202 202 203 203 201 201 203 203 203 204 207 209 210 210 210 206 198 195 198 201 205 209 212 216 222 225 228 231 233 234 235 237 238 238 237 236 236 236 238 240 240 238 237 238 238 238 238 236 233 230 225 220 218 220 223 225 225 225 226 226 226 228 232 234 235 233 229 229
172 173 175 177 177 178 178 178 184 186 186 192 196 195 194 196 199 202 205 205 204 203 203 204 204 203 203 204 207 211 212 212 211 205 200 199 201 204 208 212 216 222 227 231 235 237 239 238 237 239 241 241 240 239 238 237 239 242 240 236 235 236 236 236 236 234 232 229 222 218 218 219 220 222 225 225 225 226 227 230 235 238 240 238 235 235
171 174 177 178 179 181 181 183 187 186 186 192 195 193 194 199 202 204 205 205 204 204 205 206 204 202 201 203 206 209 210 210 208 205 203 203 205 208 212 217 222 226 230 234 237 239 240 241 240 242 244 245 243 242 240 237 238 240 239 236 236 238 237 236 235 232 231 227 220 215 216 218 219 222 226 228 228 229 231 234 238 241 243 244 243 242
169 176 180 180 181 183 181 179 182 183 185 189 191 192 196 199 200 200 202 204 206 205 205 205 203 200 200 202 205 208 208 207 206 205 206 207 208 212 216 221 225 229 232 235 238 239 242 243 242 243 247 248 247 245 242 238 237 238 238 238 238 237 235 234 232 229 227 224 219 215 215 217 220 225 229 232 233 233 234 236 240 244 245 248 249 248
169 175 179 177 178 178 172 170 176 179 181 184 186 188 192 194 195 197 199 202 204 205 205 204 201 199 200 204 208 209 208 207 206 206 208 209 210 214 218 222 227 231 234 238 241 243 245 246 245 246 249 250 249 246 242 240 238 238 238 239 239 235 232 230 230 227 224 221 219 217 216 219 224 229 232 235 238 238 238 240 245 247 248 250 252 251
170 171 171 170 174 174 168 169 174 173 172 177 179 179 183 187 190 194 196 199 202 203 204 203 201 201 203 206 209 210 209 209 209 208 209 211 212 214 218 223 227 232 236 241 244 247 249 250 249 248 248 248 247 244 241 240 239 238 238 239 238 235 231 229 227 225 222 221 220 219 220 223 228 232 235 238 240 241 241 244 247 249 250 251 253 252
172 173 169 167 171 172 168 170 172 166 163 166 169 171 177 182 185 188 192 198 201 200 200 201 202 204 206 209 211 211 210 211 212 211 212 215 215 218 221 225 230 235 239 244 247 248 249 250 248 246 246 245 243 241 240 239 238 237 236 236 236 235 231 227 225 224 223 223 222 223 226 229 231 234 237 240 241 241 242 244 246 248 250 251 252 251
177 176 172 168 168 167 166 171 174 170 163 162 164 169 176 180 180 183 186 190 193 194 195 197 201 205 208 210 213 213 212 213 215 216 217 218 220 223 227 230 233 237 240 244 246 247 248 247 245 244 245 244 242 240 238 237 235 234 233 233 234 233 231 227 224 224 226 226 224 226 229 232 234 236 239 241 243 243 244 245 247 249 250 251 252 253
177 175 174 171 168 168 171 174 176 172 169 171 172 173 178 182 182 181 180 182 186 191 193 192 196 202 206 210 213 214 213 214 218 221 223 223 223 226 229 232 235 238 241 244 246 246 246 246 245 244 244 245 243 240 237 236 234 233 232 231 232 232 231 229 227 228 230 229 228 229 231 233 236 238 241 243 244 245 246 248 250 251 252 252 253 252
180 179 180 177 174 175 177 176 175 174 174 179 181 176 178 182 180 175 177 183 188 193 196 194 195 199 204 208 210 209 209 213 218 223 225 224 224 226 228 231 234 237 240 243 246 246 245 245 245 244 243 243 242 239 238 237 235 232 231 231 231 231 231 230 230 231 232 232 233 233 234 237 239 241 243 245 245 244 245 248 250 252 253 251 247 243